Weather History for KSBP - May, 2013

Change the Weather History Date:

Monday, May 20, 2013

  Actual Average Record
Temperature  
Mean Temperature 70 °F -  
Max Temperature 91 °F 72 °F 91 °F (2003)
Min Temperature 50 °F 47 °F 36 °F (1974)
Cooling Degree Days 4    
Growing Degree Days 20 (Base 50)    
Moisture  
Dew Point 45 °F    
Average Humidity 52    
Maximum Humidity 86    
Minimum Humidity 17    
Precipitation  
Precipitation 0.00 in - - ()
Sea Level Pressure  
Sea Level Pressure 29.93 in    
Wind  
Wind Speed 5 mph (NW)    
Max Wind Speed 23 mph    
Max Gust Speed 31 mph    
Visibility 10 miles    
Events      
Averages and records for this station are not official NWS values.
T = Trace of Precipitation, MM = Missing Value Source: NWS Daily Summary

Daily Weather History Graph

Daily Weather History Graph

Search for Another Location

Airport or City:

Trip Planner

Search our weather history database for the weather conditions in past years. The results will help you decide how hot, cold, wet, or windy it might be!

Date:

Astronomy

May. 20, 2013 Rise Set
Actual Time 5:54 AM PDT 8:03 PM PDT
Civil Twilight 5:26 AM PDT 8:32 PM PDT
Nautical Twilight 4:51 AM PDT 9:07 PM PDT
Astronomical Twilight 4:13 AM PDT 9:45 PM PDT
Moon 3:26 PM PDT (5/20) 2:41 AM PDT (5/20)
Length of Visible Light 15h 06m
Length of Day
14h 09m
Waxing Gibbous, 76% of the Moon is Illuminated
May 20
Waxing Gibbous
May 24
Full
May 31
Last Quarter
Jun 8
New
Jun 16
First Quarter

Hourly Weather History & Observations

Time (PDT) Temp. Dew Point Humidity Pressure Visibility Wind Dir Wind Speed Gust Speed Precip Events Conditions
12:56 AM 50.0 °F 46.0 °F 86% 29.94 in 9.0 mi Calm Calm - N/A   Clear
1:56 AM 51.1 °F 46.0 °F 83% 29.94 in 9.0 mi Calm Calm - N/A   Clear
2:56 AM 51.1 °F 46.0 °F 83% 29.93 in 9.0 mi SW 4.6 mph - N/A   Clear
3:56 AM 53.1 °F 45.0 °F 74% 29.94 in 10.0 mi South 3.5 mph - N/A   Clear
4:56 AM 55.9 °F 44.1 °F 64% 29.94 in 10.0 mi West 4.6 mph - N/A   Clear
5:56 AM 54.0 °F 46.0 °F 75% 29.95 in 9.0 mi SW 3.5 mph - N/A   Clear
6:56 AM 55.9 °F 46.0 °F 69% 29.96 in 10.0 mi Calm Calm - N/A   Clear
7:56 AM 64.9 °F 46.9 °F 52% 29.96 in 10.0 mi Calm Calm - N/A   Clear
8:56 AM 78.1 °F 42.1 °F 28% 29.96 in 10.0 mi NW 5.8 mph - N/A   Clear
9:56 AM 84.9 °F 39.0 °F 20% 29.94 in 10.0 mi NNW 11.5 mph - N/A   Clear
10:56 AM 89.1 °F 39.0 °F 17% 29.93 in 10.0 mi North 4.6 mph - N/A   Clear
11:56 AM 82.9 °F 48.0 °F 29% 29.92 in 10.0 mi NW 15.0 mph - 0.00 in   Clear
12:56 PM 77.0 °F 48.0 °F 36% 29.93 in 10.0 mi NW 23.0 mph 31.1 mph 0.00 in   Clear
1:56 PM 78.1 °F 48.0 °F 35% 29.95 in 10.0 mi NW 13.8 mph - 0.00 in   Clear
2:56 PM 78.1 °F 46.9 °F 33% 29.94 in 10.0 mi NW 17.3 mph - N/A   Clear
3:56 PM 84.9 °F 37.9 °F 19% 29.91 in 10.0 mi NNW 16.1 mph - N/A   Clear
4:56 PM 84.9 °F 41.0 °F 21% 29.90 in 10.0 mi NNW 10.4 mph - N/A   Clear
5:56 PM 80.1 °F 46.0 °F 30% 29.90 in 10.0 mi NW 12.7 mph - N/A   Clear
6:56 PM 78.1 °F 37.9 °F 24% 29.89 in 10.0 mi NW 6.9 mph - N/A   Clear
7:56 PM 62.1 °F 48.9 °F 62% 29.91 in 9.0 mi West 6.9 mph - N/A   Clear
8:56 PM 57.0 °F 48.9 °F 74% 29.93 in 9.0 mi NW 4.6 mph - N/A   Clear
9:56 PM 57.0 °F 50.0 °F 77% 29.94 in 8.0 mi Calm Calm - N/A   Clear
10:56 PM 55.0 °F 48.9 °F 80% 29.94 in 8.0 mi ESE 3.5 mph - N/A   Clear
11:56 PM 54.0 °F 50.0 °F 86% 29.94 in 7.0 mi ESE 4.6 mph - N/A   Clear